Previsão horária em Senden

Hoje, 29 Novembro, Domingo

Tempo Temperatura Precipitação Vento Pressão Humidade
00:00 -3°C° 0 mm 4 m/s 718 mmHg 91%
01:00 -4°C° 0 mm 3 m/s 718 mmHg 96%
02:00 -4°C° 0 mm 4 m/s 718 mmHg 95%
03:00 -4°C° 0 mm 4 m/s 718 mmHg 93%
04:00 -5°C° 0 mm 5 m/s 718 mmHg 92%
05:00 -5°C° 0 mm 5 m/s 718 mmHg 90%
06:00 -5°C° 0 mm 5 m/s 719 mmHg 88%
07:00 -4°C° 0 mm 4 m/s 719 mmHg 87%
08:00 -4°C° 0 mm 4 m/s 719 mmHg 84%
09:00 -4°C° 0 mm 4 m/s 719 mmHg 82%
10:00 -4°C° 0 mm 4 m/s 719 mmHg 79%
11:00 -3°C° 0 mm 4 m/s 719 mmHg 75%
12:00 -2°C° 0 mm 4 m/s 719 mmHg 70%
13:00 -1°C° 0 mm 4 m/s 719 mmHg 65%
14:00 -1°C° 0 mm 4 m/s 719 mmHg 67%
15:00 -1°C° 0 mm 3 m/s 719 mmHg 70%
16:00 -1°C° 0 mm 3 m/s 719 mmHg 73%
17:00 -2°C° 0 mm 3 m/s 720 mmHg 76%
18:00 -4°C° 0 mm 3 m/s 720 mmHg 80%
19:00 -3°C° 0 mm 2 m/s 720 mmHg 84%
20:00 -4°C° 0 mm 2 m/s 720 mmHg 85%
21:00 -4°C° 0 mm 2 m/s 721 mmHg 86%
22:00 -4°C° 0 mm 2 m/s 721 mmHg 87%
23:00 -4°C° 0 mm 2 m/s 721 mmHg 89%

Amanhã, 30 Novembro, Segunda-feira

Tempo Temperatura Precipitação Vento Pressão Humidade
00:00 -4°C° 0 mm 2 m/s 721 mmHg 90%
01:00 -4°C° 0 mm 2 m/s 721 mmHg 92%
02:00 -2°C° 0 mm 1 m/s 721 mmHg 93%
03:00 -3°C° 0 mm 1 m/s 721 mmHg 93%
04:00 -3°C° 0 mm 1 m/s 721 mmHg 94%
05:00 -3°C° 0 mm 1 m/s 721 mmHg 94%
06:00 -3°C° 0 mm 1 m/s 721 mmHg 94%
07:00 -3°C° 0 mm 1 m/s 722 mmHg 94%
08:00 -2°C° 0 mm 1 m/s 722 mmHg 89%
09:00 -1°C° 0 mm 1 m/s 722 mmHg 85%
10:00 0°C° 0 mm 1 m/s 722 mmHg 80%
11:00 +1°C° 0 mm 1 m/s 722 mmHg 74%
12:00 +2°C° 0 mm 1 m/s 722 mmHg 69%
13:00 +3°C° 0 mm 1 m/s 722 mmHg 63%
14:00 +1°C° 0 mm 0 m/s 721 mmHg 68%
15:00 0°C° 0 mm 0 m/s 721 mmHg 72%
16:00 -1°C° 0 mm 0 m/s 721 mmHg 77%
17:00 0°C° 0 mm 1 m/s 721 mmHg 80%
18:00 -1°C° 0 mm 1 m/s 721 mmHg 83%
19:00 -1°C° 0 mm 1 m/s 721 mmHg 85%
20:00 -2°C° 0 mm 1 m/s 721 mmHg 86%
21:00 -4°C° 0 mm 2 m/s 721 mmHg 87%
22:00 -4°C° 0 mm 2 m/s 721 mmHg 88%
23:00 -4°C° 0 mm 2 m/s 720 mmHg 87%

Depois de amanhã, 1 Dezembro, Terça-feira

Tempo Temperatura Precipitação Vento Pressão Humidade
00:00 -4°C° 0 mm 2 m/s 720 mmHg 86%
01:00 -4°C° 0 mm 2 m/s 719 mmHg 85%
02:00 -5°C° 0 mm 3 m/s 719 mmHg 83%
03:00 -4°C° 0 mm 3 m/s 718 mmHg 80%
04:00 -4°C° 0 mm 3 m/s 718 mmHg 77%
05:00 -3°C° 0.2 mm 4 m/s 718 mmHg 80%
06:00 -3°C° 0.2 mm 4 m/s 717 mmHg 82%
07:00 -3°C° 0.2 mm 4 m/s 717 mmHg 84%
08:00 -2°C° 0.7 mm 4 m/s 716 mmHg 88%
09:00 -2°C° 0.7 mm 4 m/s 716 mmHg 92%
10:00 -2°C° 0.7 mm 4 m/s 716 mmHg 96%
11:00 -1°C° 0.3 mm 4 m/s 715 mmHg 97%
12:00 0°C° 0.3 mm 3 m/s 715 mmHg 97%
13:00 +2°C° 0.3 mm 2 m/s 715 mmHg 98%
14:00 +2°C° 0 mm 2 m/s 715 mmHg 98%
15:00 +2°C° 0 mm 2 m/s 715 mmHg 98%
16:00 +3°C° 0 mm 1 m/s 714 mmHg 98%
17:00 +3°C° 0 mm 1 m/s 715 mmHg 97%
18:00 +3°C° 0 mm 1 m/s 715 mmHg 96%
19:00 +3°C° 0 mm 1 m/s 715 mmHg 95%
20:00 +2°C° 0.1 mm 1 m/s 715 mmHg 92%
21:00 +1°C° 0.1 mm 2 m/s 715 mmHg 90%
22:00 +1°C° 0.1 mm 2 m/s 715 mmHg 88%
23:00 -1°C° 0 mm 2 m/s 715 mmHg 89%

2 Dezembro, Quarta-feira

Tempo Temperatura Precipitação Vento Pressão Humidade
00:00 -2°C° 0 mm 2 m/s 715 mmHg 91%
01:00 -2°C° 0 mm 2 m/s 715 mmHg 92%
02:00 -3°C° 0 mm 2 m/s 715 mmHg 93%
03:00 -3°C° 0 mm 2 m/s 715 mmHg 94%
04:00 -3°C° 0 mm 2 m/s 715 mmHg 95%
05:00 -3°C° 0 mm 2 m/s 715 mmHg 94%
06:00 -4°C° 0 mm 2 m/s 715 mmHg 92%
07:00 -4°C° 0 mm 2 m/s 715 mmHg 91%
08:00 -3°C° 0 mm 2 m/s 715 mmHg 89%
09:00 -3°C° 0 mm 2 m/s 715 mmHg 86%
10:00 -2°C° 0 mm 2 m/s 715 mmHg 83%
11:00 -2°C° 0 mm 2 m/s 715 mmHg 82%
12:00 -1°C° 0 mm 2 m/s 714 mmHg 81%
13:00 +1°C° 0 mm 2 m/s 714 mmHg 80%
14:00 -1°C° 0 mm 2 m/s 714 mmHg 83%
15:00 -1°C° 0 mm 2 m/s 713 mmHg 87%
16:00 0°C° 0 mm 1 m/s 713 mmHg 90%
17:00 -1°C° 0 mm 1 m/s 713 mmHg 91%
18:00 -1°C° 0 mm 1 m/s 713 mmHg 91%
19:00 -2°C° 0 mm 1 m/s 714 mmHg 92%
20:00 -3°C° 0 mm 0 m/s 714 mmHg 91%
21:00 -3°C° 0 mm 0 m/s 714 mmHg 91%
22:00 -3°C° 0 mm 0 m/s 714 mmHg 91%
23:00 -3°C° 0 mm 0 m/s 713 mmHg 91%

3 Dezembro, Quinta-feira

Tempo Temperatura Precipitação Vento Pressão Humidade
00:00 -3°C° 0 mm 0 m/s 713 mmHg 91%
01:00 -3°C° 0 mm 0 m/s 713 mmHg 91%
02:00 -3°C° 0 mm 0 m/s 713 mmHg 91%
03:00 -3°C° 0 mm 0 m/s 712 mmHg 91%
04:00 -3°C° 0 mm 0 m/s 712 mmHg 91%
05:00 -3°C° 0 mm 0 m/s 712 mmHg 91%
06:00 -3°C° 0 mm 0 m/s 711 mmHg 91%
07:00 -3°C° 0 mm 0 m/s 711 mmHg 90%
08:00 -3°C° 0 mm 0 m/s 711 mmHg 88%
09:00 -2°C° 0 mm 0 m/s 710 mmHg 86%
10:00 -2°C° 0 mm 0 m/s 710 mmHg 84%
11:00 -1°C° 0 mm 1 m/s 709 mmHg 81%
12:00 0°C° 0 mm 1 m/s 709 mmHg 79%
13:00 0°C° 0 mm 1 m/s 708 mmHg 77%
14:00 0°C° 0 mm 1 m/s 707 mmHg 80%
15:00 -1°C° 0 mm 1 m/s 707 mmHg 82%
16:00 -1°C° 0 mm 1 m/s 706 mmHg 85%
17:00 -2°C° 0 mm 1 m/s 706 mmHg 86%
18:00 -2°C° 0 mm 1 m/s 706 mmHg 87%
19:00 -2°C° 0 mm 1 m/s 705 mmHg 89%
20:00 -3°C° 0 mm 1 m/s 705 mmHg 89%
21:00 -3°C° 0 mm 1 m/s 705 mmHg 89%
22:00 -3°C° 0 mm 1 m/s 704 mmHg 89%
23:00 -4°C° 0 mm 0 m/s 704 mmHg 89%

4 Dezembro, Sexta-feira

Tempo Temperatura Precipitação Vento Pressão Humidade
00:00 -4°C° 0 mm 0 m/s 703 mmHg 89%
01:00 -4°C° 0 mm 0 m/s 703 mmHg 89%
02:00 -4°C° 0 mm 0 m/s 702 mmHg 89%
03:00 -4°C° 0 mm 0 m/s 702 mmHg 89%
04:00 -4°C° 0 mm 0 m/s 702 mmHg 88%
05:00 -4°C° 0 mm 0 m/s 701 mmHg 88%
06:00 -3°C° 0 mm 1 m/s 701 mmHg 88%
07:00 -3°C° 0 mm 1 m/s 701 mmHg 88%
08:00 -2°C° 0 mm 1 m/s 701 mmHg 85%
09:00 -1°C° 0 mm 1 m/s 701 mmHg 82%
10:00 0°C° 0 mm 1 m/s 700 mmHg 79%
11:00 +1°C° 0 mm 1 m/s 700 mmHg 77%
12:00 +1°C° 0 mm 1 m/s 700 mmHg 75%
13:00 +2°C° 0 mm 1 m/s 699 mmHg 73%
14:00 +1°C° 0 mm 2 m/s 699 mmHg 77%
15:00 -1°C° 0 mm 2 m/s 699 mmHg 81%
16:00 -2°C° 0 mm 3 m/s 698 mmHg 85%
17:00 -2°C° 0 mm 3 m/s 698 mmHg 88%
18:00 -2°C° 0 mm 3 m/s 698 mmHg 90%
19:00 -4°C° 0 mm 3 m/s 697 mmHg 92%
20:00 -4°C° 0 mm 3 m/s 697 mmHg 91%
21:00 -2°C° 0 mm 2 m/s 697 mmHg 90%
22:00 -2°C° 0 mm 2 m/s 697 mmHg 89%
23:00 -2°C° 0 mm 2 m/s 698 mmHg 89%
Mostrar mais

Necessitamos do seu Consentimento

A Meteoprog e os seus Fornecedores de Serviços podem armazenar e aceder a dados pessoais como cookies, identificadores do dispositivo ou outras tecnologias semelhantes existentes no seu dispositivo e processar estes dados para personalizar conteúdos e anúncios, assim como funcionalidades nas redes sociais e análise de tráfego.

  • Armazenar e/ou aceder a informações no seu dispositivo

    Os cookies, identificadores do dispositivo ou outras informações podem ser armazenados ou acedidos no seu dispositivo, para os fins acima indicados.

  • Anúncios e conteúdos personalizados, medição de anúncios e conteúdos, dados sobre o público-alvo e desenvolvimento de produtos

    Os anúncios e os conteúdos podem ser personalizados com base num perfil. Podem ser adicionados dados adicionais para uma maior personalização dos anúncios e dos conteúdos. A eficácia dos anúncios e dos conteúdos pode ser medida. Podem ser obtidas informações sobre o público que visualizou os anúncios e os conteúdos. Estes dados podem ser usados para desenvolver ou melhorar sistemas, softwares ou a experiência do utilizador.

Ao clicar em "Eu concordo”, permitirá o uso de cookies, identificadores do dispositivo e web beacons mencionados ou outras tecnologias semelhantes. As configurações do navegador do seu dispositivo podem ser alteradas.

Para certos fins, podem ser invocados interesses legítimos ao invés de consentimento. Pode ler mais informação sobre este assunto na nossa Política de Privacidade e Cookies.